Wind_Speed
19 19 17 16 15 14 13 12 12 11 11 12 13 13 13 13 12 11 10 9 9 8 8 9 9 9 8 8 8 9 10 11 11 12 12 12 10 9 9 9 9 9
19 19 19 17 16 14 13 13 13 13 13 13 13 14 13 13 13 12 11 10 9 9 8 9 9 9 9 9 9 9 9 10 11 11 12 12 10 9 9 9 9 9
19 20 19 18 16 15 15 15 14 14 14 14 14 13 13 13 13 13 12 11 10 9 9 8 9 9 9 9 9 9 9 9 10 11 12 12 10 10 10 10 10 10
18 19 19 19 18 17 17 16 15 15 15 15 14 14 13 13 12 12 12 12 11 10 9 8 8 8 8 9 9 9 9 9 10 10 11 12 11 10 11 10 10 11
18 18 19 20 20 19 18 17 16 16 16 15 15 15 14 13 13 12 12 12 12 10 9 9 8 8 7 8 8 8 9 9 9 10 11 11 11 11 11 11 11 11
19 18 18 19 20 21 20 19 18 17 17 17 17 16 15 15 14 13 12 12 12 11 10 10 9 8 8 7 7 8 8 8 9 9 10 11 11 11 11 11 11 11
20 19 19 19 20 21 21 21 19 19 18 19 19 18 17 16 15 14 13 13 13 12 12 11 10 10 9 8 7 7 8 8 9 9 10 11 11 11 11 11 11 12
21 21 21 20 20 21 22 22 21 20 20 20 20 19 18 17 16 15 14 14 14 14 13 13 12 11 10 9 9 8 8 8 9 10 10 10 10 10 11 11 12 12
22 22 22 22 22 21 21 22 22 21 21 21 21 20 19 18 17 16 16 15 15 15 15 14 13 13 12 11 10 10 9 9 10 10 10 10 10 10 11 11 12 12
22 22 23 23 23 22 21 21 22 23 23 22 22 22 21 19 18 18 17 17 16 16 15 15 14 13 12 12 12 12 11 11 11 11 11 11 11 11 11 11 12 12
24 23 23 23 23 23 23 22 22 23 23 23 23 23 22 21 20 19 18 18 17 16 16 16 15 15 14 14 14 13 13 13 13 12 12 12 12 12 12 12 12 13
27 26 24 23 23 23 23 23 23 23 23 24 24 24 23 22 22 21 20 19 18 17 17 17 16 16 16 16 15 15 15 15 14 14 14 14 14 14 14 14 13 13
28 27 25 24 23 23 23 23 24 24 24 24 25 25 25 24 24 23 22 21 20 20 19 18 18 18 18 17 18 18 17 16 16 15 15 15 16 16 16 15 15 15
27 27 26 26 25 24 24 23 24 25 25 25 26 26 26 26 25 25 24 23 22 22 21 21 20 20 19 19 19 19 19 18 18 17 17 17 17 17 17 17 17 17
27 27 27 27 26 26 25 25 25 25 26 26 26 27 27 27 27 27 26 25 25 24 23 23 23 22 21 20 20 20 20 20 20 20 19 19 19 19 19 19 19 18
29 28 28 27 27 27 26 26 26 26 27 27 27 27 28 28 28 29 28 28 27 26 25 25 25 24 23 22 21 21 20 21 22 22 22 22 21 21 21 21 21 20
31 30 30 29 29 28 27 27 27 28 28 28 28 29 29 29 29 29 29 29 29 28 28 28 27 25 23 23 23 23 22 23 23 23 24 24 24 24 23 22 22 22
31 32 32 32 31 30 29 29 29 29 30 29 29 29 30 30 31 30 30 30 30 30 29 29 28 27 25 24 24 25 25 25 25 25 25 26 26 26 25 25 24 24
31 32 33 33 33 32 32 32 32 32 31 31 30 30 31 31 31 31 31 31 31 31 30 29 29 28 27 26 25 26 26 27 27 27 27 27 27 28 27 27 27 26
31 31 31 32 33 34 34 34 34 34 33 33 33 33 33 33 32 32 33 33 33 33 31 30 29 28 28 27 27 27 27 28 29 29 29 29 28 29 29 29 28 28
31 32 32 32 34 35 35 36 36 35 35 35 35 35 35 34 33 33 33 33 34 34 33 33 31 29 28 28 28 28 28 29 30 31 31 31 30 29 29 29 29 29
29 31 32 33 34 35 36 37 37 37 36 36 37 37 36 35 34 34 34 34 34 34 34 34 32 31 30 29 28 29 30 31 31 32 32 32 31 30 30 30 30 30
28 30 31 31 33 34 36 38 39 38 38 38 38 38 36 35 34 34 34 34 34 34 35 34 33 32 32 30 30 30 32 33 33 33 33 33 32 32 31 31 31 31
29 30 31 31 32 33 35 37 39 40 40 40 39 39 37 35 34 34 34 34 34 34 34 34 33 33 32 31 31 32 33 34 34 34 34 34 33 33 33 33 32 31
30 31 33 33 34 34 35 36 38 39 41 42 41 40 39 37 36 35 34 34 34 34 34 34 34 34 34 33 33 33 34 34 35 35 35 35 34 34 34 34 33 33
31 32 34 35 35 36 36 37 38 38 39 41 42 41 41 40 39 37 36 35 35 34 34 34 34 34 34 33 33 34 35 35 36 37 36 35 34 34 34 34 34 34
Wind_Direction
205 206 207 206 202 199 198 198 200 194 190 191 191 193 191 186 183 182 182 183 184 180 171 167 166 166 169 172 175 175 174 174 175 178 182 186 186 180 179 181 181 182
205 208 210 211 208 204 202 204 205 201 196 194 195 200 199 193 189 186 185 186 186 186 181 174 169 166 167 170 177 182 179 175 176 179 181 184 186 183 185 186 184 183
205 208 210 213 212 209 208 209 208 206 204 200 199 203 204 201 197 192 189 189 189 188 187 184 177 171 169 167 174 182 185 182 181 183 183 185 188 189 190 192 190 186
204 206 208 211 212 212 213 212 210 210 209 206 205 206 207 207 206 203 198 193 192 193 192 190 186 180 175 171 172 179 187 190 190 192 191 190 194 195 195 199 199 194
206 206 206 209 211 213 216 215 213 213 211 210 210 209 209 210 211 209 206 200 197 196 196 195 192 189 185 181 178 179 185 193 198 201 199 197 199 201 200 204 206 202
211 209 207 208 210 213 215 217 216 215 212 211 213 213 212 213 213 211 209 206 203 200 201 201 198 196 195 193 191 188 188 194 204 208 206 203 204 206 206 208 210 208
215 213 212 211 211 212 214 217 218 216 213 212 213 215 216 216 216 214 211 208 207 206 205 205 204 203 202 202 203 200 196 198 206 212 212 209 209 211 211 211 211 210
218 216 215 215 214 214 215 217 219 218 216 214 213 215 217 218 219 217 215 212 210 209 208 207 207 206 206 207 210 211 208 205 206 212 215 213 211 212 213 213 214 213
221 219 217 218 218 217 217 217 219 220 220 217 215 216 218 219 220 220 219 218 216 215 213 211 210 210 209 209 213 216 217 216 213 213 215 213 212 213 213 214 216 217
226 222 220 220 220 220 219 218 219 220 222 221 219 219 220 220 222 222 221 221 222 221 220 219 217 216 215 215 217 219 221 223 221 217 216 216 215 217 218 219 221 223
227 226 223 221 221 222 221 221 222 222 222 223 223 224 223 223 224 225 224 224 224 225 226 226 225 223 222 221 223 223 224 225 226 224 222 221 221 222 224 226 227 229
226 227 226 224 223 222 222 222 223 224 224 224 225 228 228 227 227 228 228 227 227 228 228 229 229 228 227 226 227 229 229 229 229 229 228 227 227 227 227 228 230 232
228 228 228 228 227 225 223 222 223 225 227 226 227 229 231 231 231 231 231 230 230 231 230 231 232 232 230 229 229 230 231 232 233 233 233 232 232 232 231 230 230 232
228 229 228 228 229 228 226 224 223 225 227 228 228 230 232 233 234 235 235 234 233 233 233 233 233 234 234 232 231 232 232 233 234 236 236 236 236 236 236 235 233 232
222 225 227 228 228 229 229 228 227 227 227 229 230 231 233 234 235 236 237 236 236 236 236 235 235 235 236 235 235 235 235 234 235 236 237 238 238 238 239 238 237 236
215 218 222 225 227 228 229 230 231 231 230 230 229 230 233 235 236 237 238 238 239 239 239 239 239 238 238 238 239 238 238 237 236 236 236 238 239 239 240 240 239 239
213 214 216 219 223 226 227 229 231 233 234 233 232 231 232 234 236 237 239 240 240 241 241 242 242 241 239 239 240 240 239 239 239 238 237 238 239 240 240 241 241 241
213 213 215 217 219 222 224 226 228 231 234 236 236 235 234 234 235 237 239 240 242 242 242 242 243 244 241 238 238 239 240 240 241 240 239 238 239 240 241 241 242 243
216 215 218 219 220 221 222 224 226 228 232 236 237 238 238 236 236 236 237 239 241 243 243 243 243 243 242 240 239 239 240 241 242 243 242 241 241 241 242 242 242 243
218 218 221 223 223 222 222 224 227 228 230 234 237 238 238 237 237 237 237 238 240 242 244 244 244 243 242 241 240 240 240 241 243 244 245 244 243 243 243 243 243 244
215 219 222 224 224 225 226 228 230 230 231 234 237 239 239 238 237 238 238 238 239 241 242 243 244 244 243 240 239 240 241 241 242 244 245 246 246 245 245 245 245 245
215 219 221 221 222 225 228 231 233 234 235 236 238 240 241 239 238 238 238 238 238 239 241 242 242 243 243 241 239 239 240 241 241 243 244 246 246 247 247 246 246 246
217 218 219 220 223 226 229 232 235 237 237 237 238 241 242 241 239 238 238 238 238 238 239 240 240 240 241 240 239 239 240 241 242 243 244 246 247 247 247 247 247 248
220 219 219 220 223 226 228 231 234 236 238 238 239 241 242 242 240 239 238 238 237 237 237 237 238 238 238 237 237 238 239 241 243 243 243 244 245 246 247 247 247 247
225 222 222 222 223 225 226 227 230 232 235 237 239 241 241 241 240 238 237 236 235 235 235 235 235 235 235 234 234 235 237 239 241 242 243 243 244 245 247 247 248 248
233 227 225 224 224 225 227 228 228 228 229 230 233 236 238 240 241 240 238 236 235 234 234 233 233 234 233 232 232 233 235 236 239 241 242 243 243 245 246 248 248 248
Height
3231 3232 3234 3235 3237 3238 3239 3241 3241 3242 3243 3244 3244 3245 3245 3246 3246 3247 3247 3248 3248 3249 3249 3250 3250 3251 3251 3252 3252 3253 3253 3254 3255 3255 3256 3257 3258 3258 3259 3260 3260 3261
3230 3231 3233 3234 3236 3237 3239 3240 3241 3242 3243 3243 3244 3244 3245 3245 3246 3246 3247 3247 3248 3249 3249 3250 3250 3251 3251 3252 3252 3253 3253 3254 3254 3255 3256 3257 3257 3258 3259 3259 3260 3261
3229 3230 3232 3233 3235 3237 3238 3239 3240 3241 3242 3243 3243 3244 3245 3245 3245 3246 3246 3247 3248 3248 3249 3249 3250 3250 3251 3251 3252 3252 3253 3254 3254 3255 3256 3256 3257 3258 3258 3259 3260 3260
3228 3229 3231 3232 3234 3235 3236 3238 3239 3240 3241 3242 3243 3243 3244 3245 3245 3246 3246 3246 3247 3248 3249 3249 3250 3250 3251 3251 3251 3252 3253 3253 3254 3255 3255 3256 3256 3257 3258 3259 3259 3260
3227 3228 3230 3231 3232 3234 3235 3237 3238 3239 3240 3241 3242 3243 3243 3244 3245 3245 3245 3246 3246 3247 3248 3249 3249 3250 3250 3251 3251 3252 3252 3253 3253 3254 3255 3255 3256 3257 3257 3258 3259 3259
3226 3227 3229 3230 3231 3232 3234 3235 3237 3238 3239 3240 3241 3241 3242 3243 3244 3244 3245 3245 3246 3247 3247 3248 3249 3249 3250 3250 3251 3251 3252 3252 3252 3253 3254 3255 3255 3256 3257 3257 3258 3259
3224 3226 3227 3228 3230 3231 3232 3234 3235 3236 3237 3238 3239 3240 3241 3242 3243 3243 3244 3245 3245 3246 3246 3247 3248 3248 3249 3249 3250 3251 3251 3252 3252 3252 3253 3254 3254 3255 3256 3256 3257 3258
3222 3224 3226 3227 3228 3229 3231 3232 3233 3235 3236 3237 3238 3239 3240 3241 3242 3242 3243 3244 3244 3245 3245 3246 3247 3247 3248 3249 3249 3250 3250 3251 3252 3252 3252 3253 3254 3254 3255 3256 3256 3257
3220 3222 3224 3225 3227 3228 3229 3230 3232 3233 3234 3235 3236 3237 3238 3239 3240 3241 3242 3242 3243 3243 3244 3245 3246 3246 3247 3248 3248 3249 3250 3250 3251 3251 3252 3252 3253 3253 3254 3255 3255 3256
3217 3219 3221 3223 3224 3226 3228 3229 3230 3231 3232 3233 3235 3235 3236 3238 3238 3239 3240 3241 3242 3242 3243 3244 3244 3245 3246 3246 3247 3248 3248 3249 3250 3251 3251 3251 3252 3253 3253 3254 3255 3255
3215 3217 3219 3220 3222 3224 3226 3227 3228 3229 3230 3231 3232 3233 3235 3236 3237 3237 3238 3239 3240 3241 3242 3243 3243 3244 3244 3245 3246 3246 3247 3248 3249 3249 3250 3251 3251 3252 3253 3253 3254 3254
3212 3214 3216 3218 3220 3222 3223 3225 3226 3227 3228 3229 3230 3231 3232 3234 3235 3235 3236 3238 3239 3239 3240 3241 3241 3242 3243 3244 3244 3245 3246 3246 3247 3248 3249 3250 3250 3251 3252 3252 3253 3253
3210 3212 3214 3215 3217 3219 3221 3222 3223 3225 3226 3227 3228 3229 3230 3231 3232 3233 3234 3236 3237 3237 3238 3239 3239 3240 3241 3242 3242 3243 3244 3245 3246 3247 3247 3248 3249 3250 3250 3251 3252 3252
3208 3210 3211 3213 3214 3216 3217 3219 3220 3222 3223 3224 3226 3227 3228 3229 3230 3231 3232 3233 3234 3235 3236 3236 3237 3237 3238 3239 3240 3241 3242 3243 3244 3245 3246 3246 3247 3248 3249 3249 3250 3251
3206 3207 3209 3210 3211 3213 3214 3216 3217 3219 3220 3221 3222 3224 3225 3226 3227 3228 3229 3230 3231 3232 3233 3233 3234 3235 3236 3237 3238 3239 3240 3241 3242 3243 3244 3244 3245 3246 3246 3247 3248 3249
3202 3204 3206 3207 3208 3210 3211 3213 3214 3215 3216 3218 3219 3220 3221 3222 3224 3225 3226 3227 3228 3229 3230 3230 3231 3232 3233 3234 3236 3237 3238 3239 3239 3240 3241 3242 3243 3243 3244 3245 3246 3247
3198 3200 3202 3203 3205 3207 3208 3210 3211 3211 3212 3214 3215 3217 3218 3219 3220 3221 3222 3223 3224 3225 3226 3227 3228 3229 3231 3232 3233 3234 3235 3236 3237 3238 3239 3239 3240 3241 3242 3242 3243 3244
3195 3197 3198 3199 3201 3203 3204 3206 3207 3208 3208 3210 3211 3212 3213 3214 3216 3217 3218 3219 3220 3221 3222 3223 3225 3226 3228 3229 3230 3231 3232 3233 3234 3235 3235 3236 3237 3238 3239 3240 3240 3241
3193 3194 3195 3196 3198 3199 3200 3201 3203 3204 3205 3206 3207 3208 3209 3210 3211 3213 3214 3215 3216 3217 3218 3220 3221 3222 3224 3225 3227 3228 3229 3230 3231 3231 3232 3233 3234 3235 3236 3237 3237 3238
3190 3191 3193 3194 3195 3195 3196 3197 3198 3200 3201 3202 3203 3203 3204 3205 3207 3208 3209 3211 3212 3213 3214 3216 3217 3218 3220 3222 3223 3224 3225 3226 3227 3228 3229 3229 3230 3231 3232 3233 3234 3235
3186 3188 3189 3191 3192 3192 3192 3193 3194 3195 3197 3198 3198 3199 3200 3201 3202 3203 3205 3206 3208 3209 3210 3211 3213 3214 3216 3218 3219 3220 3221 3222 3223 3224 3224 3225 3227 3228 3229 3230 3231 3232
3182 3184 3185 3186 3188 3188 3189 3190 3190 3191 3192 3193 3194 3195 3196 3197 3198 3199 3200 3202 3203 3204 3205 3207 3209 3210 3211 3213 3215 3217 3217 3218 3218 3219 3220 3221 3222 3224 3225 3226 3227 3228
3177 3179 3181 3182 3183 3184 3185 3186 3186 3187 3188 3189 3189 3190 3191 3193 3194 3195 3196 3197 3199 3200 3201 3202 3204 3206 3207 3209 3211 3212 3212 3213 3214 3215 3216 3217 3218 3220 3221 3222 3223 3224
3172 3174 3176 3178 3179 3180 3181 3181 3182 3182 3183 3184 3184 3186 3187 3188 3190 3191 3192 3193 3194 3195 3196 3198 3200 3201 3202 3204 3206 3207 3208 3209 3210 3211 3212 3213 3214 3215 3217 3218 3219 3220
3168 3169 3171 3172 3173 3174 3174 3174 3175 3176 3178 3179 3180 3181 3182 3184 3185 3186 3187 3189 3190 3191 3192 3193 3195 3196 3197 3199 3201 3202 3203 3204 3205 3205 3207 3208 3210 3211 3212 3213 3215 3216
3163 3164 3166 3167 3168 3168 3167 3167 3168 3170 3171 3172 3174 3176 3178 3180 3181 3182 3183 3184 3185 3186 3187 3188 3190 3191 3192 3194 3196 3197 3198 3199 3200 3201 3202 3204 3206 3207 3208 3209 3210 3212